SCP
0 0 0 0 0 0 0 0 0 0 0 0 0 0 0 0 0 0 0 0 0 0 0 0 0 0 0 0 0 0 0 0 0 0 0 1 1 1
0 0 0 0 0 0 0 0 0 0 0 0 0 0 0 0 0 0 0 0 0 0 0 0 0 0 0 0 0 0 0 0 0 0 0 1 1 1
0 0 0 0 0 0 0 0 0 0 0 0 0 0 0 0 0 0 0 0 0 0 0 0 0 0 0 0 0 0 0 0 0 0 0 0 1 1
0 0 0 0 0 0 0 0 0 0 0 0 0 0 0 0 0 0 0 0 0 0 0 0 0 0 0 0 0 0 0 0 0 0 0 0 1 1
0 0 0 0 0 0 0 0 0 0 0 0 0 0 0 0 0 0 0 0 0 0 0 0 0 0 0 0 0 0 0 0 0 0 0 0 0 1
0 0 0 0 0 0 0 0 0 0 0 0 0 0 0 0 0 0 0 0 0 0 0 0 0 0 0 0 0 0 0 0 0 0 0 0 0 0
0 0 0 0 0 0 0 0 0 0 0 0 0 0 0 0 0 0 0 0 0 0 0 0 0 0 0 0 0 0 0 0 0 0 0 0 0 0
0 0 0 0 0 0 0 0 0 0 0 0 0 0 0 0 0 0 0 0 0 0 0 0 0 0 0 0 0 0 0 0 0 0 0 0 0 0
0 0 0 0 0 0 0 0 0 0 0 0 0 0 0 0 0 0 0 0 0 0 0 0 0 0 0 0 0 0 0 0 0 0 0 0 0 0
0 0 0 0 0 0 0 0 0 0 0 0 0 0 0 0 0 0 0 0 0 0 0 0 0 0 0 0 0 0 0 0 0 0 0 0 0 0
0 0 0 0 0 0 0 0 0 0 0 0 0 0 0 0 0 0 0 0 0 0 0 0 0 0 0 0 0 0 0 0 0 0 0 0 0 0
0 0 0 0 0 0 0 0 0 0 0 0 0 0 0 0 0 0 0 0 0 0 0 0 0 0 0 0 0 0 0 0 0 0 0 0 0 0
0 0 0 0 0 0 0 0 0 0 0 0 0 0 0 0 0 0 0 0 0 0 0 0 0 0 0 0 0 0 0 0 0 0 0 0 0 0
0 0 0 0 0 0 0 0 0 0 0 0 0 0 0 0 0 0 0 0 0 0 0 0 0 0 0 0 0 0 0 0 0 0 0 0 0 0
0 0 0 0 0 0 0 0 0 0 0 0 0 0 0 0 0 0 0 0 0 0 0 0 0 0 0 0 0 0 0 0 0 0 0 0 0 0
0 0 0 0 0 0 0 0 0 0 0 0 0 0 0 0 0 0 0 0 0 0 0 0 0 0 0 0 0 0 0 0 0 0 0 0 0 0
0 0 0 0 0 0 0 0 0 0 0 0 0 0 0 0 0 0 0 0 0 0 0 0 0 0 0 0 0 0 0 0 0 0 0 0 0 0
0 0 0 0 0 0 0 0 0 0 0 0 0 0 0 0 0 0 0 0 0 0 0 0 0 0 0 0 0 0 0 0 0 0 0 0 0 0
0 0 0 0 0 0 0 0 0 0 0 0 0 0 0 0 0 0 0 0 0 0 0 0 0 0 0 0 0 0 0 0 0 0 0 0 0 0
0 0 0 0 0 0 0 0 0 0 0 0 0 0 0 0 0 0 0 0 0 0 0 0 0 0 0 0 0 0 0 0 0 0 0 0 0 0
0 0 0 0 0 0 0 0 0 0 0 0 0 0 0 0 0 0 0 0 0 0 0 0 0 0 0 0 0 0 0 0 0 0 0 0 0 0
0 0 0 0 0 0 0 0 0 0 0 0 0 0 0 0 0 0 0 0 0 0 0 0 0 0 0 0 0 0 0 0 0 0 0 0 0 0
0 0 0 0 0 0 0 0 0 0 0 0 0 0 0 0 0 0 0 0 0 0 0 0 0 0 0 0 0 0 0 0 0 0 0 0 0 0
Wind_Speed
2 2 1 1 1 1 1 1 1 3 4 3 2 3 3 3 6 4 4 8 11 11 11 11 10 10 10 10 10 10 11 11 11 11 11 10 10 10
1 2 2 2 1 1 1 1 1 2 3 3 3 4 4 4 6 4 4 9 9 10 10 11 10 10 10 10 10 10 11 11 12 12 11 11 11 10
1 2 3 2 1 1 1 1 1 1 3 4 3 3 3 4 4 4 4 4 5 9 10 10 10 10 10 9 10 10 11 12 12 12 12 12 12 11
2 2 2 2 2 2 2 2 2 1 2 4 4 3 3 3 4 4 4 4 4 8 10 10 10 10 10 10 10 10 11 12 12 12 12 13 13 12
2 3 3 2 3 2 2 2 2 1 1 2 4 3 3 3 3 4 4 4 4 6 8 9 10 10 10 11 10 11 11 11 12 12 12 13 13 13
2 2 3 3 3 3 2 2 1 1 2 2 3 3 3 3 2 3 4 4 4 5 6 7 9 9 10 11 11 11 11 11 12 12 12 12 12 12
2 2 2 2 3 2 2 2 1 1 1 2 2 2 3 3 3 3 3 4 4 3 4 5 5 4 5 8 10 10 11 11 12 12 12 12 12 12
2 2 2 2 2 3 2 1 1 1 2 2 2 3 3 3 3 3 3 4 4 3 4 5 4 4 4 4 8 11 11 12 12 12 13 13 13 12
2 2 2 2 2 2 2 2 2 2 3 2 3 3 3 3 3 3 3 3 4 4 3 4 3 4 4 5 10 11 11 12 12 13 13 13 13 13
2 2 2 2 2 1 1 2 2 2 3 2 2 3 2 2 2 2 2 2 3 3 2 3 3 4 5 5 8 10 11 13 14 14 14 14 14 14
2 2 2 2 3 1 0 1 2 2 3 3 3 3 3 3 2 1 1 2 3 3 1 1 3 4 4 3 5 10 12 13 14 14 14 14 15 14
2 2 2 3 3 1 1 1 2 3 1 1 2 3 2 2 2 1 1 2 2 2 1 1 2 3 4 3 3 5 6 10 13 14 14 14 15 8
2 2 2 3 3 3 1 1 2 2 1 0 1 1 2 2 2 2 1 1 1 2 2 1 2 2 2 4 4 3 4 5 6 8 11 14 14 10
2 2 2 2 2 2 1 2 1 2 0 0 0 1 2 2 2 2 2 2 1 2 3 2 1 2 2 3 4 5 5 4 4 5 6 11 11 13
1 2 2 2 2 1 1 1 1 0 0 0 1 1 2 2 2 2 2 3 3 2 2 2 2 2 2 2 3 4 5 4 4 5 6 6 5 6
1 1 1 1 1 2 1 1 1 0 0 1 1 1 1 1 1 2 2 2 3 3 3 3 2 2 2 2 3 4 4 4 5 6 6 6 5 4
1 0 0 0 0 1 1 1 1 1 1 1 1 1 1 1 2 2 2 2 2 3 4 4 4 3 2 2 2 3 4 4 4 5 6 6 6 5
1 0 0 0 0 1 1 1 1 1 1 1 1 1 1 1 1 2 2 1 2 2 3 3 4 4 3 2 2 2 3 3 5 5 5 5 7 6
1 0 0 1 1 1 1 1 1 1 1 1 1 1 1 1 1 1 1 1 2 2 2 2 3 3 3 4 5 2 2 4 5 5 4 4 5 7
1 1 1 1 1 1 1 1 1 1 1 1 1 1 1 1 1 1 1 1 1 2 2 2 2 2 1 3 4 4 4 4 4 5 5 5 5 7
1 1 1 1 1 1 1 1 1 1 1 1 1 1 1 1 1 1 1 1 1 1 2 2 3 5 2 1 2 4 4 5 4 4 5 5 5 4
1 1 1 1 1 1 1 1 1 1 1 1 1 1 1 1 1 1 1 1 1 1 2 2 3 3 2 2 3 4 5 6 6 7 6 3 2 3
2 1 1 2 1 1 1 1 2 1 1 1 1 1 1 1 1 1 1 1 0 1 2 2 2 2 2 2 2 3 5 6 5 5 4 6 7 8
Wind_Direction
220 225 236 253 239 237 214 200 215 293 296 279 301 306 314 316 325 326 321 329 338 341 342 342 345 346 344 345 345 345 343 341 337 333 329 327 325 319
222 219 238 252 251 248 234 244 227 236 277 281 285 300 309 319 328 335 331 336 342 344 350 350 348 348 348 348 347 346 346 343 339 336 333 330 325 321
256 241 244 243 242 253 246 246 261 244 281 295 298 309 310 314 324 330 331 331 338 348 350 351 352 351 348 348 348 346 345 344 341 338 334 330 328 325
249 258 265 252 243 249 246 249 254 252 267 298 311 311 309 307 321 333 337 337 336 344 350 352 354 355 353 351 349 346 345 345 344 341 337 334 331 327
243 244 257 254 247 257 257 256 260 279 286 287 300 307 314 324 336 334 335 335 336 340 347 351 354 356 357 355 351 349 348 346 344 341 339 335 333 331
260 253 249 248 247 249 252 256 268 288 304 297 306 313 317 321 328 332 333 339 335 337 343 344 346 353 356 352 351 352 351 348 344 340 338 337 335 333
275 269 269 274 293 267 263 261 253 277 293 298 306 317 320 326 320 316 317 326 324 328 331 334 334 337 341 343 348 351 350 347 344 341 338 338 337 333
276 280 279 277 294 311 293 288 275 249 262 268 288 289 295 306 309 310 317 325 316 325 330 319 329 327 325 327 340 347 348 347 346 345 343 340 338 335
279 280 288 293 311 282 301 307 289 291 268 248 255 272 276 279 279 297 305 309 292 297 316 304 318 318 319 327 339 346 350 353 351 347 345 344 342 337
263 267 272 273 280 310 314 317 284 277 285 275 252 264 274 274 255 260 275 305 296 302 317 295 309 310 318 322 334 347 351 353 352 351 350 347 345 343
280 277 284 275 277 322 321 310 303 294 324 337 343 348 349 346 353 15 330 323 313 307 339 307 305 314 311 314 330 343 346 349 351 351 351 350 349 346
286 276 281 297 300 312 253 256 290 289 298 330 350 353 348 342 4 356 270 290 308 299 307 331 313 335 320 305 315 327 336 342 346 348 349 350 349 345
265 272 278 300 312 313 319 272 286 319 299 311 328 342 352 353 347 340 321 280 269 274 285 322 306 315 296 302 308 314 327 328 333 337 342 345 346 347
266 274 286 305 308 308 310 327 5 30 355 56 3 344 344 340 337 336 334 337 322 271 268 276 274 289 307 305 303 314 320 323 328 330 331 337 340 340
275 294 307 314 303 297 325 6 48 16 260 339 324 323 320 316 331 342 348 353 359 355 334 303 292 290 280 280 297 310 317 317 329 334 331 329 326 330
293 292 334 357 5 358 3 357 345 323 316 283 323 338 342 345 346 340 334 340 351 345 341 337 321 297 290 288 285 303 312 310 324 331 327 322 321 323
34 18 36 66 31 0 10 12 3 357 1 350 343 352 355 355 343 342 345 351 356 340 340 342 341 323 275 258 297 308 316 316 320 329 330 326 321 325
105 176 210 235 256 297 308 321 326 329 334 347 350 344 326 322 335 344 353 356 355 342 338 339 346 353 353 325 251 295 321 320 326 329 329 325 322 327
130 211 242 246 269 284 288 288 296 308 315 304 326 319 301 299 320 330 344 352 353 343 335 340 354 9 2 336 320 318 318 323 328 329 328 322 312 316
234 233 249 251 251 257 267 285 303 317 318 305 300 314 280 264 284 298 300 329 337 338 339 345 349 344 318 296 301 309 315 312 318 321 323 320 307 305
255 251 254 252 257 252 259 273 279 276 288 292 281 282 288 282 271 270 278 316 347 337 331 322 306 315 310 333 329 321 320 320 312 303 312 321 327 337
261 252 247 245 244 241 251 256 268 274 275 282 284 277 281 285 257 240 246 262 294 306 308 312 321 338 3 358 325 318 322 328 331 325 311 298 317 328
271 272 263 247 241 239 239 248 254 262 266 274 275 272 273 285 287 254 227 247 297 326 336 337 339 349 341 322 320 318 322 329 335 343 344 335 318 300